CAPE
2448 2239 1961 2018 1916 1760 1829 1633 1268 1046 1492 1139 1314 1239 1373 1636 1207 1320 1075 1671 2449 2100 2816 3302 3560 3803 3198 3572 3899 3398 3715 4052 3915 3713 3617 3780 3342 2537 2019 1606 1987 2242
2540 2371 2531 1967 2490 2606 2268 1432 1431 1178 1503 2072 1182 1674 1319 1537 1191 1167 1415 1590 2358 1732 2632 2810 3186 3441 3745 3253 3820 3530 4098 3740 3747 2474 2658 3034 3459 2338 1898 1792 1452 1845
2168 2304 1831 1655 1415 1317 795 900 1378 1124 928 718 745 1688 980 765 1059 1326 1440 1457 1133 1010 2480 2604 2790 3232 3091 3434 3827 3826 3472 4066 3782 3107 3317 3326 3116 3206 3183 2059 1708 1531
2300 2220 1380 1098 1046 840 659 1071 1338 1204 755 946 639 468 544 439 796 1283 1459 1911 1672 1932 1866 1637 1887 2057 2605 2878 3501 3581 3622 4308 3654 4081 3840 3720 3648 3367 2895 2652 2386 2030
1786 1923 1493 1070 910 1091 988 762 554 527 632 836 524 698 1190 2246 1402 1016 1844 1888 2337 1794 1860 2516 2443 1884 2858 3012 3370 3510 3038 3326 3386 4235 4336 4280 4338 3951 3137 2599 2630 2278
2169 2428 2358 1804 1356 1107 648 564 618 568 537 570 680 570 427 953 857 959 1195 1466 1287 1128 878 976 1590 1389 1646 2732 3029 3010 2762 2127 2317 3660 3691 3826 3260 2514 1803 2072 2691 2735
1454 1944 1720 1553 1212 848 652 471 586 694 588 587 681 701 537 460 621 762 1421 1461 1416 1736 998 1164 1735 1854 1698 2106 2894 3398 3473 3496 3489 3611 3874 3700 4013 3745 3031 3346 3524 3270
1190 1346 1764 1494 1265 1164 992 879 778 589 835 947 393 697 731 523 660 408 741 1070 1114 1538 1666 1139 1996 2201 1451 1423 2435 3128 2976 2110 2354 3048 4122 4238 4243 4422 4112 3277 3190 3269
1432 1499 1356 1461 1181 1000 1029 1002 981 941 766 752 562 511 538 593 621 429 1196 1319 1254 1351 2001 1664 2259 1961 1371 1478 1706 2593 2607 2222 1897 2348 2644 2817 3372 4001 3468 3096 2741 2884
1739 1924 1594 1304 1100 957 707 738 807 905 927 877 872 798 704 693 603 886 1388 2044 1682 1532 1978 1898 1700 1539 1369 1419 1915 2282 2464 3034 3058 2962 2395 2405 2502 2548 2348 2743 2817 3233
795 1008 1652 1822 1676 1396 884 577 484 545 842 1024 1048 972 828 901 1608 1670 1716 2301 1268 1516 1541 1705 1600 1627 1718 1343 1411 1686 2073 1975 2299 2857 2946 2791 2673 2770 2559 2900 3027 2928
1302 935 937 937 993 1501 1004 768 689 280 233 528 906 1513 1476 936 1538 1595 1513 1802 1933 1706 1608 1825 1984 2016 2115 2001 1495 1403 1841 1786 1983 2509 2564 3149 3016 2575 2648 2682 2147 2584
1481 1387 1165 1670 1313 1013 936 1224 763 545 556 359 456 943 907 837 783 1312 1988 1789 1949 1734 1408 1958 2304 1832 2107 2459 2132 1980 1961 1878 1334 2221 2689 2959 2775 2788 2706 2221 2393 2518
2590 3086 2104 1952 2238 1816 1242 825 803 715 530 1500 910 533 353 655 858 865 648 2113 1784 2019 2230 2195 2335 2292 2628 2686 2348 1910 1842 1783 1844 1696 1526 2242 2517 2657 2093 2064 2090 2083
2592 2572 2405 2202 2224 2030 1301 1149 1169 1129 1333 1205 1224 2354 790 458 799 762 987 832 2128 2572 2459 2207 1955 1862 1792 1786 2676 2390 2294 1749 1367 1599 1672 1766 1945 1635 1910 2007 1807 1841
2547 2357 2312 2397 2424 2536 2374 1759 1288 1336 1313 1520 1708 2390 3164 2790 2486 2225 1422 1290 1812 1871 1941 1866 1732 1945 1724 1266 1342 2696 1988 1799 1501 2196 2277 2398 3244 2992 2498 2327 2216 1737
2469 2517 2183 2058 1943 1990 2223 2009 2168 2280 2265 1646 1650 2275 2201 3529 2250 1844 1619 1425 1205 939 1326 2044 1384 1461 1156 1116 1193 1200 2426 2761 2241 2432 2515 2234 2259 1683 2762 2716 2696 1887
2072 2128 1916 1792 1808 1876 1784 1525 1622 2004 1976 2071 1838 1948 2258 2142 1926 2115 2320 1837 1549 1528 1365 1246 1314 1536 525 921 1218 1268 1729 2751 1971 1798 2448 2002 1582 1600 1665 1967 2286 2544
1578 1556 1511 1394 1135 1285 1402 1528 1641 1611 1760 1852 2046 2267 2066 1894 2352 2501 2208 2107 1849 2270 1732 1306 1374 818 751 815 899 1087 1115 1743 2259 2054 1790 2335 1955 1445 1537 2405 2686 3161
1365 1480 1322 1176 1175 1127 1239 1275 1435 1401 1551 1608 1512 1678 1819 1946 2037 2268 2545 3030 3320 2897 2597 1895 1805 825 871 749 959 939 977 1263 1950 2098 2105 2300 1632 1272 1108 1658 2282 2744
1505 1523 1338 987 866 938 1029 1238 1243 1349 1503 1632 1642 1597 1772 1831 1684 1780 2125 2339 2352 2195 2256 2007 1645 1084 977 961 895 899 938 1088 1926 2111 2346 2399 2314 2387 2336 2452 2748 2960
706 833 860 846 848 874 934 979 908 1007 1145 1337 1463 1475 1439 1456 1628 1743 2090 2519 2464 2039 1683 1545 1450 1183 968 965 989 1044 969 1087 1873 2329 2238 2369 2574 2953 2628 2936 3096 2579
448 544 644 699 739 784 852 956 1063 1075 1032 970 994 1118 1242 1240 1234 1330 1829 2014 2062 2084 1495 1318 1135 1097 1186 1210 1115 968 927 1357 1786 2053 2424 2229 2460 2357 2338 2134 2073 1958
378 431 504 608 637 689 681 612 524 583 659 712 718 768 758 658 856 813 1137 1645 1360 1491 1220 1421 1179 1144 1245 1254 1140 889 770 1204 1865 2430 1962 1747 1549 1630 1509 1465 1316 1434
136 132 107 128 148 191 202 184 237 263 387 458 375 432 382 226 333 526 720 786 1002 1227 1126 1152 1164 1089 1104 1138 1043 875 804 856 1636 1531 1346 1299 1444 1722 1680 1427 1454 1196
88 89 97 174 179 233 288 332 322 371 358 432 397 338 52 1 0 0 355 586 782 870 816 829 913 850 856 873 834 803 677 556 552 811 793 791 1212 1377 1518 1674 1182 806
Wind_Speed
6 6 5 5 5 4 5 3 2 2 3 3 2 3 3 5 4 4 3 4 3 2 3 3 3 3 2 3 4 4 7 7 7 6 4 4 4 5 4 5 4 2
6 7 7 5 6 6 5 4 4 4 4 4 3 5 4 5 4 4 5 4 5 2 3 3 2 2 2 2 3 2 3 3 4 4 3 2 3 3 5 4 3 4
6 7 6 6 5 6 4 4 5 4 5 3 4 7 6 3 4 5 4 5 4 3 4 3 3 4 3 3 4 4 2 3 3 4 5 5 4 5 6 6 5 5
6 6 6 6 6 7 5 5 5 7 5 6 3 2 4 5 5 7 4 3 4 4 5 4 3 4 4 3 4 3 3 3 3 3 5 6 6 6 5 5 6 6
7 6 5 7 6 8 8 6 5 8 5 6 7 5 5 7 8 7 8 5 4 3 3 5 6 3 6 5 4 4 2 2 2 3 3 4 5 3 4 4 5 5
9 9 8 7 7 8 8 7 6 8 8 6 8 8 7 7 7 7 9 8 7 4 4 5 6 6 5 6 6 5 3 1 2 5 3 3 3 3 4 4 4 4
11 10 8 7 6 7 7 9 9 8 9 9 9 9 10 10 10 7 8 10 9 8 6 7 8 8 8 8 8 7 5 4 6 6 6 5 4 4 4 6 7 6
10 12 10 9 8 8 8 8 9 11 10 11 10 11 10 10 12 11 9 9 9 10 10 8 11 11 9 9 10 11 9 6 5 6 8 7 6 6 6 5 6 6
11 11 11 10 9 9 9 9 10 10 12 10 9 10 11 10 10 11 13 12 9 11 12 11 12 14 12 11 11 12 12 9 7 9 10 8 8 8 7 7 6 7
15 14 11 10 8 10 10 10 10 11 12 11 10 9 10 12 10 10 12 13 12 11 11 12 13 14 14 13 12 12 13 12 11 9 10 11 10 8 8 9 8 8
30 22 14 12 10 11 10 10 11 11 12 12 11 11 9 10 13 12 12 13 11 12 11 11 13 14 14 13 13 12 12 11 11 12 10 11 10 11 10 10 10 8
24 21 22 24 24 23 22 23 18 12 13 14 13 13 14 11 15 14 11 11 12 12 12 12 13 14 15 14 12 12 12 11 12 11 11 12 12 10 11 11 11 12
21 19 16 16 19 21 22 22 21 23 15 14 17 17 13 12 10 14 18 14 15 12 12 13 13 12 14 15 14 13 12 12 12 12 13 13 12 12 11 11 11 12
25 25 23 21 21 23 24 26 25 23 25 25 20 15 13 12 13 12 15 21 19 15 15 16 14 13 15 14 14 13 13 12 13 13 13 13 14 13 13 13 13 11
28 28 27 23 22 25 26 26 26 28 27 28 26 23 18 17 20 18 16 15 21 22 19 17 14 12 13 15 15 13 14 14 13 13 14 14 14 15 16 15 15 15
29 29 28 27 27 28 29 29 28 28 28 24 21 19 23 25 26 25 24 23 22 21 19 17 21 22 23 23 18 20 23 17 17 16 18 23 21 20 21 22 21 19
32 32 31 29 30 31 32 31 30 30 29 26 23 19 25 26 26 24 25 24 22 22 21 24 21 24 24 23 19 24 23 21 21 22 23 23 23 24 18 23 22 23
32 32 32 32 32 34 35 33 33 32 32 28 25 22 24 22 21 23 26 25 24 22 25 23 22 25 26 21 23 28 28 25 27 21 25 27 26 25 25 23 23 20
35 34 34 35 36 35 36 35 34 34 34 31 27 28 30 29 26 24 24 25 25 26 29 27 25 26 22 20 20 24 28 27 25 30 27 26 26 27 24 23 23 23
36 36 37 38 38 38 37 36 36 37 37 33 31 32 30 27 29 26 24 27 28 30 32 30 31 31 28 27 27 28 30 28 27 26 27 28 28 27 26 25 25 25
44 43 42 41 40 42 41 39 37 36 37 38 34 33 30 29 28 25 24 26 29 31 32 33 38 36 32 32 31 33 34 30 30 29 29 29 29 30 29 27 28 28
52 50 48 45 44 44 45 44 44 41 37 35 36 35 35 30 26 27 29 30 32 34 34 42 36 38 37 38 37 36 34 32 31 31 30 30 31 32 31 32 31 31
49 47 46 46 45 44 44 44 44 42 41 39 39 38 36 32 28 29 31 31 33 36 41 42 38 38 39 40 39 38 35 36 34 34 35 34 34 35 38 38 36 35
42 44 42 41 40 41 42 42 44 44 45 43 43 41 39 35 31 27 27 29 32 38 45 42 45 43 44 45 45 42 38 39 39 39 38 40 40 41 40 39 40 42
29 32 32 29 27 26 28 33 38 43 46 47 46 44 43 43 39 32 25 26 28 39 39 48 48 49 51 52 52 51 47 44 45 45 45 42 41 42 42 43 43 42
nan nan nan 23 21 19 19 20 23 30 36 42 46 46 nan nan nan nan 39 38 42 46 48 48 50 51 55 57 59 58 55 51 50 50 50 49 47 47 47 49 50 47
Wind_Direction
263 255 264 249 247 244 250 262 267 251 212 229 234 230 182 236 201 230 234 264 287 229 223 201 216 195 165 197 184 189 177 173 171 173 199 189 189 156 151 169 191 234
274 269 261 263 251 250 240 248 254 232 242 205 214 251 236 220 266 194 221 245 281 280 248 284 262 235 221 231 265 217 206 192 175 157 179 203 204 162 164 164 160 189
278 282 289 294 292 296 305 275 255 248 254 252 202 239 278 251 265 254 215 213 257 314 291 266 285 277 267 234 239 248 244 234 203 161 184 198 204 199 191 168 170 158
279 275 293 305 297 302 301 269 263 264 249 266 256 236 256 290 271 288 261 260 225 233 280 299 281 296 289 279 262 258 230 250 241 216 188 199 205 195 183 186 177 169
294 284 276 285 277 277 284 284 300 289 287 266 290 260 243 231 273 289 288 281 257 257 244 280 298 285 286 284 285 270 251 241 267 256 228 203 211 207 173 186 195 195
277 265 261 260 261 264 288 297 292 292 298 299 285 288 279 277 253 272 295 307 317 318 317 315 304 308 309 297 291 284 279 272 262 291 275 241 204 201 181 210 245 268
285 282 286 273 275 280 279 283 285 280 291 293 279 282 284 292 290 273 269 295 307 303 314 292 292 289 290 286 291 290 280 239 211 238 268 258 250 221 206 215 227 234
272 275 276 271 277 279 283 281 286 281 276 280 295 284 280 291 293 301 289 275 291 296 292 286 281 286 293 284 288 290 296 296 289 258 264 271 258 257 259 260 268 273
241 254 261 269 277 275 279 282 281 283 281 285 289 292 290 286 286 297 285 285 279 272 277 280 271 285 282 272 272 281 284 286 284 283 288 287 288 289 290 283 286 275
247 235 235 252 265 268 276 276 269 272 278 286 290 292 296 289 287 282 282 280 285 279 269 264 266 264 271 277 270 268 277 282 279 267 270 285 287 283 282 277 272 266
213 208 222 228 235 247 245 250 265 269 268 275 280 279 274 278 280 274 268 278 289 285 279 271 268 267 264 269 271 274 277 282 283 283 279 272 275 274 277 272 266 271
239 220 210 224 215 206 214 219 217 244 270 270 271 263 259 259 276 277 274 272 273 271 276 273 266 264 264 266 268 268 277 284 279 279 281 279 275 276 272 267 269 264
243 258 263 250 247 247 242 234 220 195 200 259 266 269 278 285 284 277 273 263 260 262 264 265 270 272 265 264 268 263 260 266 274 278 277 276 283 284 280 282 280 280
236 240 257 254 244 247 244 238 235 233 220 213 229 251 268 264 263 266 268 269 259 252 253 251 251 259 260 259 261 264 260 259 262 261 270 277 279 279 275 271 271 268
238 239 247 249 248 253 251 245 246 249 236 219 206 222 236 241 256 244 244 257 269 266 259 252 253 256 259 251 258 264 256 248 252 267 269 268 267 269 275 276 274 274
239 238 239 241 238 240 238 238 247 249 245 237 226 208 235 248 246 247 244 249 255 257 258 255 247 241 242 227 227 253 257 254 243 236 244 244 247 256 259 259 260 255
235 234 232 232 236 236 234 238 242 242 242 247 253 238 224 229 248 249 249 243 240 244 253 254 257 252 238 231 234 258 262 264 260 246 252 255 249 247 249 255 257 263
233 233 233 230 229 231 234 236 241 239 236 237 243 247 253 246 235 247 251 249 243 238 244 252 249 257 265 262 252 252 255 253 259 264 261 261 257 252 249 250 253 262
233 235 234 233 232 232 233 235 237 240 243 240 235 236 236 237 240 244 247 249 250 245 249 254 251 257 269 265 261 263 266 263 258 262 256 260 263 265 260 258 261 258
234 235 236 236 234 235 235 236 236 238 240 242 237 234 236 241 241 236 239 247 249 249 248 249 253 256 257 258 259 261 260 259 261 258 264 266 266 268 268 266 265 264
229 234 237 239 238 238 238 237 239 242 243 244 245 243 244 245 246 249 253 252 252 254 256 254 250 244 251 254 253 255 258 254 256 259 260 261 260 264 268 269 268 268
229 234 238 242 243 243 243 242 241 242 243 245 245 245 247 249 248 251 253 257 261 261 260 256 254 247 251 253 255 256 257 259 258 259 261 263 265 262 262 262 262 262
232 237 242 245 247 248 247 244 241 240 241 244 247 247 246 243 243 245 253 259 265 269 266 266 265 252 250 252 253 253 259 261 257 255 258 264 268 264 257 253 252 252
234 237 240 243 244 247 249 248 246 244 245 247 251 250 245 244 246 245 249 255 257 266 267 272 266 257 252 251 250 248 254 260 260 260 261 260 260 258 257 257 255 250
241 238 238 235 235 238 244 248 249 249 250 252 255 252 245 241 241 243 249 259 266 270 280 272 266 259 255 254 252 251 253 259 259 263 263 262 262 261 262 263 262 255
nan nan nan 240 244 249 249 250 250 251 250 249 249 249 nan nan nan nan 239 252 256 258 256 256 257 256 253 251 252 252 252 258 258 260 260 258 258 259 258 262 265 264